User: anonymous   Login
Location: Erdweis
(48.5167°N, 15.3500°E)
Time: 14:19:14
(UTC+00:00)
Language:

Abrixas rocket - Orbit

View from above orbital plane
View from above orbital plane
View from above satellite
View from above satellite

Ground track
Ground track

The orbit data is extracted from the following two-line orbital elements,

1 25723U 99022C   20339.64369441  .00061101  00000-0  27291-3 0  9998
2 25723  48.4087 144.5509 0001566 193.5335 166.5580 15.83541217204539
Epoch (UTC): 04 December 2020 15:26:55
Eccentricity: 0.0001566
inclination: 48.4087°
perigee height: 319 km
apogee height: 321 km
right ascension of ascending node: 144.5509°
argument of perigee: 193.5335°
revolutions per day: 15.83541217
mean anomaly at epoch: 166.5580°
orbit number at epoch: 20453

The dashed part of the orbit path shows where the satellite is in the earth's shadow,  

DLR